Weather History for KHDE - December, 2013

Change the Weather History Date:

Wednesday, December 4, 2013

  Actual Average Record
Temperature  
Mean Temperature 18 °F -  
Max Temperature 24 °F 42 °F 62 °F (1965)
Min Temperature 12 °F 19 °F 0 °F (2005)
Degree Days  
Heating Degree Days 47    
Moisture  
Dew Point 9 °F    
Average Humidity 72    
Maximum Humidity 93    
Minimum Humidity 50    
Precipitation  
Precipitation 0.00 in - - ()
Sea Level Pressure  
Sea Level Pressure 29.81 in    
Wind  
Wind Speed 19 mph (NNW)    
Max Wind Speed 25 mph    
Max Gust Speed 32 mph    
Visibility 9 miles    
Events Snow    
Averages and records for this station are not official NWS values.
T = Trace of Precipitation, MM = Missing Value Source: NWS Daily Summary

Daily Weather History Graph

Daily Weather History Graph

Search for Another Location

Airport or City:

Trip Planner

Search our weather history database for the weather conditions in past years. The results will help you decide how hot, cold, wet, or windy it might be!

Date:

Astronomy

Dec. 04, 2013 Rise Set
Actual Time 7:44 AM CST 5:10 PM CST
Civil Twilight 7:14 AM CST 5:41 PM CST
Nautical Twilight 6:40 AM CST 6:15 PM CST
Astronomical Twilight 6:07 AM CST 6:48 PM CST
Moon 9:13 AM CST (12/4) 7:23 PM CST (12/4)
Length of Visible Light 10h 27m
Length of Day
9h 26m
Waxing Crescent, 4% of the Moon is Illuminated
Dec 4
Waxing Crescent
Dec 9
First Quarter
Dec 17
Full
Dec 25
Last Quarter
Jan 1
New

Hourly Weather History & Observations

Time (CST) Temp. Windchill Dew Point Humidity Pressure Visibility Wind Dir Wind Speed Gust Speed Precip Events Conditions
12:04 AM 24.8 °F 10.3 °F 19.4 °F 80% 29.73 in 10.0 mi North 20.7 mph 26.5 mph N/A   Overcast
12:15 AM 24.4 °F 11.9 °F 19.4 °F 81% 29.73 in 10.0 mi North 15.0 mph 23.0 mph N/A   Overcast
12:24 AM 24.8 °F 10.7 °F 19.4 °F 80% 29.73 in 10.0 mi North 19.6 mph 26.5 mph N/A   Overcast
12:35 AM 24.4 °F 11.5 °F 19.9 °F 83% 29.72 in 10.0 mi North 16.1 mph 24.2 mph N/A   Overcast
12:44 AM 24.8 °F 10.7 °F 19.4 °F 80% 29.72 in 10.0 mi North 19.6 mph 27.6 mph N/A   Overcast
12:55 AM 23.4 °F 9.2 °F 19.0 °F 84% 29.71 in 10.0 mi North 18.4 mph 25.3 mph N/A   Overcast
1:04 AM 23.0 °F 8.3 °F 19.4 °F 86% 29.71 in 7.0 mi North 19.6 mph 26.5 mph N/A   Overcast
1:15 AM 22.6 °F 8.3 °F 18.5 °F 84% 29.71 in 10.0 mi North 18.4 mph 25.3 mph N/A   Overcast
1:24 AM 21.2 °F 6.8 °F 17.6 °F 86% 29.70 in 10.0 mi North 17.3 mph 24.2 mph N/A   Overcast
1:35 AM 22.1 °F 6.8 °F 18.3 °F 85% 29.70 in 7.0 mi North 20.7 mph 26.5 mph N/A   Overcast
1:44 AM 21.2 °F 5.6 °F 17.6 °F 86% 29.69 in 7.0 mi North 20.7 mph 31.1 mph N/A   Overcast
1:55 AM 21.2 °F 4.2 °F 18.0 °F 87% 29.69 in 5.0 mi North 25.3 mph 32.2 mph N/A   Overcast
2:04 AM 21.2 °F 5.2 °F 17.6 °F 86% 29.70 in 5.0 mi North 21.9 mph 27.6 mph N/A   Overcast
2:15 AM 20.8 °F 5.9 °F 17.6 °F 87% 29.70 in 5.0 mi North 18.4 mph 27.6 mph N/A   Overcast
2:24 AM 19.4 °F 1.8 °F 17.6 °F 93% 29.69 in 4.0 mi North 25.3 mph 28.8 mph N/A   Overcast
2:35 AM 19.6 °F 3.1 °F 16.5 °F 88% 29.70 in 5.0 mi North 21.9 mph 29.9 mph N/A   Overcast
2:43 AM 19.4 °F 3.6 °F 15.8 °F 86% 29.71 in 5.0 mi North 19.6 mph 27.6 mph N/A   Overcast
2:55 AM 19.2 °F 3.0 °F 15.6 °F 86% 29.72 in 7.0 mi North 20.7 mph 29.9 mph N/A   Overcast
3:15 AM 18.9 °F 2.5 °F 15.3 °F 86% 29.73 in 7.0 mi North 20.7 mph 27.6 mph N/A   Overcast
3:24 AM 17.6 °F 1.7 °F 15.8 °F 93% 29.74 in 7.0 mi North 18.4 mph 26.5 mph N/A   Overcast
3:35 AM 18.7 °F 3.6 °F 15.3 °F 87% 29.73 in 10.0 mi NNW 17.3 mph 25.3 mph N/A   Overcast
3:55 AM 18.5 °F 3.8 °F 15.4 °F 88% 29.72 in 7.0 mi North 16.1 mph 24.2 mph N/A   Overcast
4:04 AM 17.6 °F 2.7 °F 15.8 °F 93% 29.72 in 7.0 mi North 16.1 mph 21.9 mph N/A   Overcast
4:15 AM 18.3 °F 3.1 °F 15.1 °F 87% 29.71 in 7.0 mi North 17.3 mph 25.3 mph N/A   Overcast
4:35 AM 17.6 °F 2.2 °F 14.5 °F 88% 29.72 in 10.0 mi NNW 17.3 mph 24.2 mph N/A   Overcast
4:44 AM 17.6 °F 0.9 °F 14.0 °F 86% 29.71 in 10.0 mi NNW 20.7 mph 27.6 mph N/A   Overcast
4:55 AM 17.6 °F 3.7 °F 14.0 °F 86% 29.72 in 10.0 mi North 13.8 mph 26.5 mph N/A   Overcast
5:15 AM 16.9 °F 1.2 °F 14.0 °F 88% 29.72 in 10.0 mi North 17.3 mph 21.9 mph N/A   Overcast
5:24 AM 17.6 °F 3.7 °F 14.0 °F 86% 29.72 in 7.0 mi NNW 13.8 mph 21.9 mph N/A   Overcast
5:35 AM 16.7 °F 1.0 °F 14.0 °F 89% 29.73 in 7.0 mi NNW 17.3 mph 25.3 mph N/A   Overcast
5:44 AM 17.6 °F 3.2 °F 14.0 °F 86% 29.72 in 5.0 mi NNW 15.0 mph 23.0 mph N/A   Overcast
5:55 AM 16.7 °F 2.0 °F 14.0 °F 89% 29.72 in 7.0 mi NNW 15.0 mph 24.2 mph N/A   Overcast
6:15 AM 16.7 °F 1.0 °F 13.3 °F 86% 29.72 in 10.0 mi North 17.3 mph 25.3 mph N/A   Overcast
6:24 AM 15.8 °F 0.9 °F 12.2 °F 86% 29.72 in 10.0 mi NNW 15.0 mph 24.2 mph N/A Snow Light Snow
6:35 AM 16.2 °F -0.2 °F 12.4 °F 85% 29.73 in 5.0 mi NNW 18.4 mph 25.3 mph N/A Snow Light Snow
6:44 AM 15.8 °F -1.9 °F 10.4 °F 79% 29.73 in 10.0 mi North 21.9 mph 31.1 mph N/A Snow Light Snow
6:55 AM 15.6 °F 1.8 °F 10.9 °F 82% 29.74 in 10.0 mi NNW 12.7 mph 24.2 mph N/A Snow Light Snow
7:04 AM 15.8 °F 3.4 °F 10.4 °F 79% 29.75 in 10.0 mi NNW 10.4 mph 20.7 mph N/A Snow Light Snow
7:15 AM 15.6 °F -1.8 °F 10.6 °F 80% 29.75 in 7.0 mi NNW 20.7 mph 24.2 mph N/A Snow Light Snow
7:24 AM 15.8 °F -1.1 °F 10.4 °F 79% 29.76 in 10.0 mi NNW 19.6 mph 25.3 mph N/A Snow Light Snow
7:35 AM 15.4 °F -0.1 °F 10.0 °F 79% 29.76 in 10.0 mi NNW 16.1 mph 23.0 mph N/A Snow Light Snow
7:44 AM 15.8 °F -1.1 °F 8.6 °F 73% 29.76 in 10.0 mi NNW 19.6 mph 26.5 mph N/A Snow Light Snow
7:55 AM 15.3 °F -0.9 °F 9.9 °F 79% 29.77 in 10.0 mi NNW 17.3 mph 25.3 mph N/A Snow Light Snow
8:15 AM 15.3 °F -1.3 °F 9.5 °F 78% 29.77 in 10.0 mi NNW 18.4 mph 28.8 mph N/A Snow Light Snow
8:35 AM 15.3 °F -1.3 °F 10.4 °F 81% 29.78 in 4.0 mi NNW 18.4 mph 25.3 mph N/A Snow Light Snow
8:55 AM 14.9 °F -1.8 °F 10.4 °F 82% 29.79 in 3.0 mi NNW 18.4 mph 28.8 mph N/A Snow Light Snow
9:15 AM 15.1 °F -2.0 °F 10.0 °F 80% 29.79 in 3.0 mi NNW 19.6 mph 27.6 mph N/A Snow Light Snow
9:35 AM 15.3 °F -1.3 °F 9.0 °F 76% 29.78 in 10.0 mi NNW 18.4 mph 27.6 mph N/A   Overcast
9:55 AM 15.6 °F -1.3 °F 9.5 °F 77% 29.80 in 10.0 mi NW 19.6 mph 27.6 mph N/A Snow Light Snow
10:15 AM 15.3 °F -2.6 °F 7.9 °F 73% 29.80 in 10.0 mi NNW 21.9 mph 29.9 mph N/A   Overcast
10:35 AM 15.6 °F -1.8 °F 8.4 °F 73% 29.79 in 10.0 mi NNW 20.7 mph 25.3 mph N/A   Overcast
10:55 AM 15.6 °F -0.9 °F 7.2 °F 69% 29.79 in 10.0 mi NNW 18.4 mph 29.9 mph N/A   Overcast
11:15 AM 16.9 °F 2.3 °F 8.2 °F 69% 29.79 in 10.0 mi NNW 15.0 mph 26.5 mph N/A   Overcast
11:35 AM 16.7 °F 0.1 °F 7.0 °F 66% 29.79 in 10.0 mi NNW 19.6 mph 29.9 mph N/A   Overcast
11:55 AM 18.0 °F 1.7 °F 7.7 °F 64% 29.79 in 10.0 mi NW 19.6 mph 27.6 mph N/A   Overcast
12:15 PM 18.0 °F 1.3 °F 7.0 °F 62% 29.79 in 10.0 mi NW 20.7 mph 26.5 mph N/A   Overcast
12:30 PM 18.5 °F 0.6 °F 7.3 °F 62% 29.78 in 10.0 mi NW 25.3 mph 32.2 mph N/A   Overcast
12:55 PM 18.9 °F 2.9 °F 6.4 °F 58% 29.77 in 10.0 mi NNW 19.6 mph 27.6 mph N/A   Scattered Clouds
1:15 PM 19.4 °F 3.6 °F 6.6 °F 58% 29.77 in 10.0 mi NW 19.6 mph 27.6 mph N/A   Clear
1:35 PM 20.1 °F 5.4 °F 6.6 °F 56% 29.78 in 10.0 mi NNW 17.3 mph 31.1 mph N/A   Clear
1:55 PM 19.6 °F 3.1 °F 5.7 °F 55% 29.80 in 10.0 mi NW 21.9 mph 29.9 mph N/A   Clear
2:15 PM 20.3 °F 3.7 °F 5.4 °F 52% 29.79 in 10.0 mi NW 23.0 mph 27.6 mph N/A   Clear
2:35 PM 21.0 °F 5.0 °F 5.0 °F 50% 29.79 in 10.0 mi NW 21.9 mph 25.3 mph N/A   Clear
2:55 PM 20.5 °F 4.6 °F 4.5 °F 50% 29.79 in 10.0 mi NNW 20.7 mph 32.2 mph N/A   Clear
3:15 PM 20.1 °F 5.9 °F 4.3 °F 50% 29.81 in 10.0 mi NNW 16.1 mph 32.2 mph N/A   Clear
3:35 PM 19.4 °F 2.1 °F 4.3 °F 52% 29.83 in 10.0 mi NW 24.2 mph 31.1 mph N/A   Clear
3:55 PM 19.2 °F 3.0 °F 4.5 °F 53% 29.84 in 10.0 mi NW 20.7 mph 28.8 mph N/A   Clear
4:15 PM 19.2 °F 2.6 °F 4.1 °F 52% 29.86 in 10.0 mi NNW 21.9 mph 27.6 mph N/A   Mostly Cloudy
4:35 PM 18.1 °F 0.4 °F 3.2 °F 52% 29.86 in 10.0 mi NW 24.2 mph 29.9 mph N/A   Mostly Cloudy
4:55 PM 16.7 °F 2.0 °F 2.5 °F 54% 29.88 in 10.0 mi NW 15.0 mph 29.9 mph N/A   Scattered Clouds
5:15 PM 15.8 °F -0.6 °F 2.7 °F 56% 29.89 in 10.0 mi NW 18.4 mph 28.8 mph N/A   Clear
5:35 PM 15.4 °F -0.1 °F 2.3 °F 56% 29.90 in 10.0 mi NNW 16.1 mph 23.0 mph N/A   Clear
5:55 PM 15.3 °F -1.8 °F 2.1 °F 56% 29.90 in 10.0 mi NNW 19.6 mph 28.8 mph N/A   Clear
6:15 PM 15.3 °F -1.3 °F 2.3 °F 57% 29.93 in 10.0 mi NNW 18.4 mph 27.6 mph N/A   Scattered Clouds
6:35 PM 14.5 °F -3.2 °F 1.4 °F 56% 29.95 in 10.0 mi NNW 20.7 mph 29.9 mph N/A   Scattered Clouds
6:55 PM 14.5 °F -1.8 °F 2.1 °F 58% 29.92 in 10.0 mi NNW 17.3 mph 23.0 mph N/A   Clear
7:15 PM 13.6 °F -3.0 °F 1.0 °F 57% 29.94 in 10.0 mi NNW 17.3 mph 31.1 mph N/A   Clear
7:35 PM 13.8 °F -3.2 °F 1.4 °F 58% 29.97 in 10.0 mi NNW 18.4 mph 24.2 mph N/A   Scattered Clouds
7:55 PM 13.8 °F -4.9 °F 1.2 °F 57% 29.98 in 10.0 mi NNW 23.0 mph 31.1 mph N/A   Mostly Cloudy
8:15 PM 14.0 °F -2.5 °F 1.4 °F 57% 30.00 in 10.0 mi NNW 17.3 mph 26.5 mph N/A   Overcast
8:35 PM 13.8 °F -3.2 °F 1.4 °F 58% 30.00 in 10.0 mi NNW 18.4 mph 29.9 mph N/A   Overcast
8:55 PM 14.0 °F -3.9 °F 1.4 °F 57% 30.03 in 10.0 mi NNW 20.7 mph 28.8 mph N/A   Overcast
9:15 PM 14.0 °F -2.5 °F 1.9 °F 59% 30.04 in 10.0 mi NNW 17.3 mph 23.0 mph N/A   Overcast
9:35 PM 14.5 °F -4.4 °F 2.1 °F 58% 30.04 in 10.0 mi NNW 24.2 mph 32.2 mph N/A   Overcast
9:55 PM 14.0 °F -3.0 °F 1.9 °F 59% 30.06 in 10.0 mi NNW 18.4 mph 25.3 mph N/A   Overcast
10:15 PM 13.8 °F -4.1 °F 1.2 °F 57% 30.04 in 10.0 mi NNW 20.7 mph 27.6 mph N/A   Mostly Cloudy
10:35 PM 13.8 °F -1.1 °F 1.4 °F 58% 30.08 in 10.0 mi NNW 13.8 mph 24.2 mph N/A   Clear
10:55 PM 13.8 °F -2.2 °F 1.2 °F 57% 30.12 in 10.0 mi NW 16.1 mph 20.7 mph N/A   Mostly Cloudy
11:15 PM 12.9 °F -2.8 °F 0.3 °F 57% 30.10 in 10.0 mi NNW 15.0 mph 24.2 mph N/A   Scattered Clouds
11:35 PM 12.6 °F -4.4 °F 0.1 °F 58% 30.12 in 10.0 mi NW 17.3 mph 24.2 mph N/A   Clear
11:55 PM 12.0 °F -5.6 °F -0.9 °F 56% 30.12 in 10.0 mi NNW 18.4 mph 25.3 mph N/A   Clear